Brookings, OR

11:37 PM PDT on June 25, 2017 (GMT -0700)
Brookings State

Weather History for KBOK - April, 2014

Change the Weather History Date:

Friday, April 18, 2014

  Actual Average Record
Temperature  
Mean Temperature 52 °F -  
Max Temperature 61 °F 59 °F 84 °F (2015)
Min Temperature 43 °F 41 °F 34 °F (2006)
Degree Days  
Heating Degree Days 13    
Growing Degree Days 2 (Base 50)    
Moisture  
Dew Point 44 °F    
Average Humidity 79    
Maximum Humidity 100    
Minimum Humidity 42    
Precipitation  
Precipitation 0.00 in - - ()
Sea Level Pressure  
Sea Level Pressure 30.01 in    
Wind  
Wind Speed 2 mph (West)    
Max Wind Speed 9 mph    
Max Gust Speed -    
Visibility 6 miles    
Events      
Averages and records for this station are not official NWS values.
T = Trace of Precipitation, MM = Missing Value Source: NWS Daily Summary

Daily Weather History Graph

Daily Weather History Graph

Search for Another Location

Airport or City:

Trip Planner

Search our weather history database for the weather conditions in past years. The results will help you decide how hot, cold, wet, or windy it might be!

Date:

Astronomy

Apr. 18, 2014 Rise Set
Actual Time 6:31 AM PDT 8:01 PM PDT
Civil Twilight 6:02 AM PDT 8:31 PM PDT
Nautical Twilight 5:27 AM PDT 9:06 PM PDT
Astronomical Twilight 4:49 AM PDT 9:44 PM PDT
Moon 11:54 PM PDT (4/18) 8:56 AM PDT (4/18)
Length of Visible Light 14h 28m
Length of Day
13h 30m
Waning Gibbous, 86% of the Moon is Illuminated
Apr 18
Waning Gibbous
Apr 22
Last Quarter
Apr 28
New
May 6
First Quarter
May 14
Full

Hourly Weather History & Observations

Time (PDT) Temp. Windchill Dew Point Humidity Pressure Visibility Wind Dir Wind Speed Gust Speed Precip Events Conditions
12:04 AM 48.2 °F - 48.2 °F 100% 30.04 in 2.0 mi Calm Calm - N/A   Partly Cloudy
12:13 AM 48.2 °F - 48.2 °F 100% 30.04 in 6.0 mi Calm Calm - N/A   Clear
12:56 AM 46.9 °F - 45.9 °F 96% 30.06 in 6.0 mi Calm Calm - N/A   Clear
1:56 AM 45.0 °F - 45.0 °F 100% 30.05 in 7.0 mi Calm Calm - N/A   Clear
2:56 AM 43.9 °F - 43.9 °F 100% 30.04 in 6.0 mi Calm Calm - N/A   Clear
3:56 AM 43.9 °F 42.3 °F 43.9 °F 100% 30.04 in 7.0 mi NE 3.5 mph - N/A   Clear
4:56 AM 43.9 °F - 43.9 °F 100% 30.04 in 7.0 mi Calm Calm - N/A   Clear
5:56 AM 43.9 °F - 43.9 °F 100% 30.03 in 7.0 mi Calm Calm - N/A   Clear
6:56 AM 43.0 °F - 43.0 °F 100% 30.03 in 6.0 mi Calm Calm - N/A   Clear
7:56 AM 46.9 °F - 46.9 °F 100% 30.03 in 6.0 mi WSW 3.5 mph - N/A   Clear
8:56 AM 50.0 °F - 45.9 °F 86% 30.04 in 6.0 mi Calm Calm - N/A   Clear
9:56 AM 52.9 °F - 47.8 °F 83% 30.03 in 6.0 mi Calm Calm - N/A   Haze
10:56 AM 55.9 °F - 45.0 °F 67% 30.03 in 6.0 mi WNW 5.8 mph - N/A   Haze
11:56 AM 56.8 °F - 43.9 °F 62% 30.04 in 6.0 mi West 9.2 mph - N/A   Haze
12:56 PM 57.9 °F - 43.0 °F 58% 30.02 in 6.0 mi WNW 5.8 mph - N/A   Haze
1:56 PM 59.9 °F - 41.9 °F 51% 30.01 in 6.0 mi WNW 9.2 mph - N/A   Haze
2:56 PM 61.9 °F - 41.0 °F 46% 30.01 in 6.0 mi WNW 5.8 mph - N/A   Haze
3:56 PM 61.0 °F - 37.9 °F 42% 30.00 in 6.0 mi West 6.9 mph - N/A   Haze
4:56 PM 59.9 °F - 36.9 °F 42% 29.98 in 6.0 mi NW 5.8 mph - N/A   Haze
5:56 PM 59.0 °F - 45.9 °F 62% 29.97 in 5.0 mi South 6.9 mph - N/A   Haze
6:56 PM 54.0 °F - 45.9 °F 74% 29.97 in 5.0 mi SSW 3.5 mph - N/A   Haze
7:56 PM 50.9 °F - 45.0 °F 80% 29.96 in 5.0 mi SE 3.5 mph - N/A   Haze
8:56 PM 47.8 °F - 41.0 °F 77% 29.97 in 7.0 mi Calm Calm - N/A   Clear
9:56 PM 46.9 °F - 38.8 °F 73% 29.96 in 8.0 mi ESE 3.5 mph - N/A   Clear
10:56 PM 46.9 °F - 39.9 °F 77% 29.94 in 8.0 mi Calm Calm - N/A   Clear
11:56 PM 43.9 °F - 38.8 °F 82% 29.95 in 8.0 mi Calm Calm - N/A   Clear